Weather in Tours

France     47˚23′06″N   0˚41′27″E
temp.,
°C
wind,
m/s
gust,
m/s
humid.,
%
clouds,
%
prec.,
mm/h
press.,
hPa
HPBL,
m
2 december, wed
wed201:00+5˚n5128773 0.1 1022414
04:00+6˚n5117783 0.1 1020621
07:00+6˚n6118192 0.2 1020625
10:00+6˚n598353 0.0 1020441
13:00+8˚n567453 0.0 1019787
16:00+8˚nw3575100 0.0 1018548
19:00+6˚wnw3782100 0.0 1016306
22:00+6˚sw3577100 0.0 1016268
3 december, thu
thu301:00+6˚sw4983100 0.6 1013450
04:00+6˚wsw5992100 0.4 1010406
07:00+6˚wsw3594100 0.6 1008287
10:00+6˚sw4785100 0.1 1005518
13:00+6˚sw61180100 0.9 1000906
16:00+7˚ssw81483100 1.5 9941095
19:00+8˚ssw91580100 2.4 9891057
22:00+6˚sw3890100 8.8 985627
4 december, fri
fri401:00+7˚sse71392100 13.3 981941
04:00+6˚sw81385100 0.8 979969
07:00+4˚w81290100 1.3 980694
10:00+5˚wsw8128395 0.6 983831
13:00+6˚wsw687185 0.8 985993
16:00+6˚w58691 0.3 985908
19:00+3˚sw36790 0.3 988174
22:00+2˚ssw238152 0.0 98953
5 december, sat
sat501:00+1˚s358842 0.0 989106
04:00+2˚s389068 0.1 989321
07:00+3˚s489284 0.8 990441
10:00+4˚s468996 0.0 991395
13:00+5˚ssw357692 0.1 991543
16:00+6˚se47640 0.0 989476
19:00+4˚ese6109450 2.8 988642
22:00+1˚ne71197100 7.8 988497
6 december, sun
sun601:00+2˚n81396100 11.2 989653
04:00+2˚nnw599185 0.1 990647
07:00+2˚wnw599292 0.2 992452
10:00+1˚wnw579280 0.1 993367
13:00+3˚wnw578589 0.1 995617
16:00+3˚wnw4791100 0.6 996466
19:00+3˚w3790100 0.6 998187
22:00+2˚w369399 0.0 1001155